Погода в Уколок

Россия / Архангельская область     62°20′14″N   41°52′44″E
темп.,
°C
ветер,
м/с
пор.,
м/с
влажн.,
%
обл.,
%
осадки,
мм/ч
давл.,
гПа
погр.,
м
24 июня, чт
чт2400:00+18ююз38946 0.2 1017150
03:00+19зюз379062 0.2 1016107
06:00+24юз377411 0.0 1015181
09:00+31юз364443 0.0 10131143
12:00+33зюз583069 0.0 10122533
15:00+33з69316 0.0 10112950
18:00+31з584065 0.0 10122198
21:00+24зюз39614 0.0 1012186
25 июня, пт
пт2500:00+19зсз118117 0.0 101311
03:00+18ссз01895 0.3 101312
06:00+20с238540 0.4 1013322
09:00+22с236928 0.6 1014717
12:00+24ссз345674 0.0 10141389
15:00+25сз3451100 0.0 10141728
18:00+25ссз355289 0.0 10131292
21:00+19с25710 0.0 1014163
26 июня, сб
сб2600:00+15ссв128342 0.0 101418
03:00+14св11923 0.0 101416
06:00+18всв2272100 0.0 1013234
09:00+22всв2257100 0.0 1013639
12:00+20в1268100 0.0 101367
15:00+21св246536 0.1 1012329
18:00+22ссв226394 0.0 1012330
21:00+19с2479100 0.0 1012120
27 июня, вс
вс2700:00+18всв1281100 0.0 101264
03:00+18с128149 0.0 101354
06:00+20ссв227031 0.0 1013225
09:00+25всв33499 0.0 1013835
12:00+27в33405 0.0 10131384
15:00+29в223736 0.0 10122061
18:00+29всв234091 0.0 10101759
21:00+24в2260100 0.0 101138
28 июня, пн
пн2800:00+22ююв2575100 0.1 1010126
03:00+20ю119064 0.4 100920
06:00+22юз12815 0.0 1009216
09:00+28сз015319 0.0 1008955
12:00+27зюз455944 0.3 1008820
15:00+31зюз453899 0.3 10072627
18:00+28з46405 0.0 10081192
21:00+22з265793 0.0 100899